Barcelona, Spain

7:11 AM CEST en Octubre 19, 2017 (GMT +0200)
El Prat

Tiempo Historia de LEBL - Junio, 2017

Change the Weather History Date:

Lunes, Junio 19, 2017

  Actual Average Record
Temperature  
Temperatura media 77 ° F -  
Temperatura máxima 83 ° F 78 ° F 86 ° F (2003)
Temperatura mínima 71 ° F 66 ° F 56 ° F (2016)
Cooling Degree Days 12    
Growing Degree Days 27 (Base 50)    
Moisture  
Punto de rocío 70 ° F    
Average Humidity 75    
Maximum Humidity 89    
Minimum Humidity 56    
Precipitación  
Precipitación 0.00 pul 0.04 pul - ()
Presión al nivel del mar  
Presión al nivel del mar 30.09 pul    
Viento  
Velocidad del viento 6 mph ()    
Velocidad máxima del viento 12 mph    
Max Gust Speed -    
Visibilidad 8.3 Millas    
Eventos      
Averages and records for this station are not official NWS values.
T = Trace of Precipitation, MM = Missing Value Source: Averaged Metar Reports

Daily Weather History Graph

Daily Weather History Graph

Search for Another Location

Airport or City:

Trip Planner

Search our weather history database for the weather conditions in past years. The results will help you decide how hot, cold, wet, or windy it might be!

Date:

Astronomía

Jun. 19, 2017 Salida Puesta
Hora real 6:18 AM CEST 9:27 PM CEST
Crepúsculo civil 5:44 AM CEST 10:01 PM CEST
Crepúsculo náutico 5:01 AM CEST 10:45 PM CEST
Crepúsculo astronómico 4:09 AM CEST 11:37 PM CEST
Luna 3:02 AM CEST 3:59 PM CEST
Horas de luz 16h 17m
Horas de luz
15h 09m
Creciente menguante, 29% of the Moon is Illuminated
Jun 19
Creciente menguante
Jun 24
Nueva
Jul 1
Cuarto creciente
Jul 9
Luna llena
Jul 16
Cuarto menguante

Hourly Weather History & Observations

Hora (CEST) Temp. Índice de calor Punto de rocío Humedad Presión Visibilidad Wind Dir Velocidad del viento Velocidad de ráfagas Precip Eventos Condiciones
12:00 AM 77 ° F - 68 ° F 66% 30.08 pul 19 mi Este 6.9 mph - -  
12:00 AM 75.2 ° F - 68.0 ° F 78% 30.06 pul 6.2 mi Este 4.6 mph - N/A   Parcialmente nublado
12:30 AM 75.2 ° F - 66.2 ° F 73% 30.06 pul 6.2 mi ENE 3.5 mph - N/A   Parcialmente nublado
1:00 AM 77 ° F - 66 ° F 61% 30.09 pul 19 mi ENE 4.6 mph - -  
1:00 AM 75.2 ° F - 66.2 ° F 73% 30.06 pul 6.2 mi NE 3.5 mph - N/A   Parcialmente nublado
1:30 AM 75.2 ° F - 66.2 ° F 73% 30.06 pul 6.2 mi Variable 2.3 mph - N/A   Parcialmente nublado
2:00 AM 75 ° F - 67 ° F 70% 30.08 pul 16 mi NE 3.5 mph - -   Nubes dispersas
2:00 AM 75.2 ° F - 66.2 ° F 73% 30.06 pul 6.2 mi Este 3.5 mph - N/A   Parcialmente nublado
2:30 AM 75.2 ° F - 68.0 ° F 78% 30.06 pul 6.2 mi Variable 2.3 mph - N/A   Parcialmente nublado
3:00 AM 74 ° F - 69 ° F 79% 30.08 pul 12 mi Este 5.8 mph - -  
3:00 AM 73.4 ° F - 69.8 ° F 88% 30.06 pul 6.2 mi Este 4.6 mph - N/A   Parcialmente nublado
3:30 AM 73.4 ° F - 68.0 ° F 83% 30.06 pul 6.2 mi ENE 6.9 mph - N/A   Parcialmente nublado
4:00 AM 74 ° F - 68 ° F 77% 30.08 pul 11 mi ENE 6.9 mph - -  
4:00 AM 73.4 ° F - 68.0 ° F 83% 30.06 pul 6.2 mi ENE 8.1 mph - N/A   Parcialmente nublado
4:30 AM 73.4 ° F - 68.0 ° F 83% 30.06 pul 6.2 mi NE 4.6 mph - N/A   Parcialmente nublado
5:00 AM 73 ° F - 66 ° F 73% 30.08 pul 12 mi Norte 5.8 mph - -   Nubes dispersas
5:00 AM 73.4 ° F - 66.2 ° F 78% 30.06 pul 6.2 mi NNE 4.6 mph - N/A   Parcialmente nublado
5:30 AM 71.6 ° F - 66.2 ° F 83% 30.06 pul 6.2 mi NE 5.8 mph - N/A   Parcialmente nublado
6:00 AM 72 ° F - 66 ° F 76% 30.08 pul 9 mi Norte 6.9 mph - -  
6:00 AM 71.6 ° F - 66.2 ° F 83% 30.06 pul 6.2 mi NE 3.5 mph - N/A   Parcialmente nublado
6:30 AM 71.6 ° F - 66.2 ° F 83% 30.06 pul 6.2 mi Norte 3.5 mph - N/A   Parcialmente nublado
7:00 AM 72 ° F - 66 ° F 76% 30.09 pul 10 mi Norte 4.6 mph - -  
7:00 AM 71.6 ° F - 66.2 ° F 83% 30.09 pul 6.2 mi NNE 3.5 mph - N/A   Parcialmente nublado
7:30 AM 71.6 ° F - 66.2 ° F 83% 30.09 pul 6.2 mi NE 5.8 mph - N/A   Parcialmente nublado
8:00 AM 73.4 ° F - 66.2 ° F 78% 30.09 pul 6.2 mi NE 6.9 mph - N/A   Muy nublado
8:30 AM 75.2 ° F - 66.2 ° F 73% 30.09 pul 6.2 mi NE 8.1 mph - N/A   Muy nublado
9:00 AM 78 ° F - 69 ° F 66% 30.12 pul 8 mi ENE 9.2 mph - -  
9:00 AM 77.0 ° F - 68.0 ° F 74% 30.09 pul 6.2 mi NE 9.2 mph - N/A   Nubes dispersas
9:30 AM 77.0 ° F - 69.8 ° F 78% 30.09 pul 6.2 mi NE 6.9 mph - N/A   Nubes dispersas
10:00 AM 79 ° F - 69 ° F 65% 30.12 pul 12 mi ENE 9.2 mph - -  
10:30 AM 78.8 ° F - 69.8 ° F 74% 30.09 pul 6.2 mi ENE 8.1 mph - N/A   Nubes dispersas
11:00 AM 82 ° F - 70 ° F 59% 30.12 pul 11 mi ESE 5.8 mph - -   Parcialmente nublado
11:00 AM 80.6 ° F 83.9 ° F 69.8 ° F 70% 30.09 pul 6.2 mi Este 6.9 mph - N/A   Nubes dispersas
11:30 AM 80.6 ° F 83.9 ° F 69.8 ° F 70% 30.12 pul 6.2 mi Este 6.9 mph - N/A   Nubes dispersas
12:00 PM 83 ° F - 70 ° F 56% 30.13 pul 19 mi ESE 9.2 mph - -  
12:00 PM 80.6 ° F 83.9 ° F 69.8 ° F 70% 30.12 pul 6.2 mi Este 6.9 mph - N/A   Nubes dispersas
12:30 PM 80.6 ° F 83.9 ° F 69.8 ° F 70% 30.12 pul 6.2 mi Este 8.1 mph - N/A   Nubes dispersas
1:00 PM 82 ° F - 71 ° F 61% 30.13 pul 16 mi ESE 10.4 mph - -  
1:00 PM 80.6 ° F 84.6 ° F 71.6 ° F 74% 30.12 pul 6.2 mi ENE 10.4 mph - N/A   Nubes dispersas
1:30 PM 80.6 ° F 84.6 ° F 71.6 ° F 74% 30.12 pul 6.2 mi ENE 11.5 mph - N/A   Nubes dispersas
2:00 PM 82 ° F - 72 ° F 66% 30.12 pul 12 mi Este 10.4 mph - -   Muy nublado
2:00 PM 82.4 ° F 88.2 ° F 73.4 ° F 74% 30.12 pul 6.2 mi Este 10.4 mph - N/A   Nubes dispersas
2:30 PM 80.6 ° F 84.6 ° F 71.6 ° F 74% 30.12 pul 6.2 mi Este 10.4 mph - N/A   Nubes dispersas
3:00 PM 83 ° F - 71 ° F 59% 30.12 pul 15 mi SE 8.1 mph - -  
3:00 PM 80.6 ° F 84.6 ° F 71.6 ° F 74% 30.12 pul 6.2 mi ESE 8.1 mph - N/A   Nubes dispersas
3:30 PM 80.6 ° F 84.6 ° F 71.6 ° F 74% 30.12 pul 6.2 mi SE 6.9 mph - N/A   Nubes dispersas
4:00 PM 82 ° F - 72 ° F 66% 30.12 pul 11 mi SE 8.1 mph - -  
4:00 PM 80.6 ° F 84.6 ° F 71.6 ° F 74% 30.09 pul 6.2 mi ESE 6.9 mph - N/A   Nubes dispersas
4:30 PM 82.4 ° F 88.2 ° F 73.4 ° F 74% 30.09 pul 6.2 mi ESE 8.1 mph - N/A   Nubes dispersas
5:00 PM 83 ° F - 73 ° F 65% 30.11 pul 12 mi SE 10.4 mph - -   Parcialmente nublado
5:00 PM 82.4 ° F 88.2 ° F 73.4 ° F 74% 30.09 pul 6.2 mi SE 9.2 mph - N/A   Parcialmente nublado
5:30 PM 82.4 ° F 88.2 ° F 73.4 ° F 74% 30.09 pul 6.2 mi SE 9.2 mph - N/A   Parcialmente nublado
6:00 PM 80.6 ° F 84.6 ° F 71.6 ° F 74% 30.09 pul 6.2 mi ESE 9.2 mph - N/A   Parcialmente nublado
6:30 PM 80.6 ° F 85.4 ° F 73.4 ° F 79% 30.09 pul 6.2 mi SSE 6.9 mph - N/A   Parcialmente nublado
7:00 PM 82 ° F - 73 ° F 69% 30.09 pul 15 mi SSE 8.1 mph - -  
7:00 PM 80.6 ° F 85.4 ° F 73.4 ° F 79% 30.06 pul 6.2 mi SE 6.9 mph - N/A   Parcialmente nublado
7:30 PM 80.6 ° F 85.4 ° F 73.4 ° F 79% 30.06 pul 6.2 mi SSE 6.9 mph - N/A   Parcialmente nublado
8:00 PM 80.6 ° F 85.4 ° F 73.4 ° F 79% 30.06 pul 6.2 mi Sur 6.9 mph - N/A   Parcialmente nublado
8:30 PM 80.6 ° F 84.6 ° F 71.6 ° F 74% 30.06 pul 6.2 mi Sur 6.9 mph - N/A   Parcialmente nublado
9:00 PM 80 ° F - 72 ° F 70% 30.09 pul 12 mi SSO 8.1 mph - -  
9:00 PM 78.8 ° F - 71.6 ° F 78% 30.06 pul 6.2 mi Sur 8.1 mph - N/A   Parcialmente nublado
9:30 PM 78.8 ° F - 71.6 ° F 78% 30.09 pul 6.2 mi SSO 6.9 mph - N/A   Parcialmente nublado
10:00 PM 78 ° F - 72 ° F 77% 30.10 pul 12 mi Oeste 5.8 mph - -  
10:00 PM 77.0 ° F - 71.6 ° F 83% 30.09 pul 6.2 mi SSO 5.8 mph - N/A   Parcialmente nublado
10:30 PM 77.0 ° F - 71.6 ° F 83% 30.09 pul 6.2 mi SSO 5.8 mph - N/A   Parcialmente nublado
11:00 PM 78 ° F - 73 ° F 80% 30.13 pul 11 mi OSO 5.8 mph - -   Nubes dispersas
11:00 PM 77.0 ° F - 73.4 ° F 89% 30.12 pul 6.2 mi SSO 5.8 mph - N/A   Parcialmente nublado
11:30 PM 77.0 ° F - 73.4 ° F 89% 30.12 pul 6.2 mi SO 5.8 mph - N/A   Nubes dispersas